TimePST,TemperatureF,Dew PointF,Humidity,Sea Level PressureIn,VisibilityMPH,Wind Direction,Wind SpeedMPH,Gust SpeedMPH,PrecipitationIn,Events,Conditions,WindDirDegrees,DateUTC
12:00 AM,42.8,39.2,87,29.65,15.0,East,9.2,-,N/A,,Mostly Cloudy,90,2012-11-20 08:00:00
1:00 AM,44.6,42.8,93,29.67,15.0,East,10.4,-,N/A,,Overcast,100,2012-11-20 09:00:00
1:08 AM,44.6,-9999,N/A,-9999,12.0,East,10.4,-,N/A,Rain,Light Rain,100,2012-11-20 09:08:00
2:00 AM,44.6,42.8,93,29.67,12.0,East,9.2,-,N/A,Rain,Light Rain,90,2012-11-20 10:00:00
2:37 AM,44.6,-9999,N/A,-9999,15.0,East,11.5,-,N/A,,Mostly Cloudy,90,2012-11-20 10:37:00
3:00 AM,44.6,42.8,93,29.67,15.0,East,11.5,-,N/A,,Overcast,90,2012-11-20 11:00:00
3:17 AM,44.6,-9999,N/A,-9999,12.0,East,12.7,-,N/A,Rain,Light Rain,100,2012-11-20 11:17:00
4:00 AM,45,43,91,29.66,12,East,12.7,,,Rain,Light Rain,80,2012-11-20 12:00:00
4:00 AM,44.6,42.8,93,29.66,12.0,East,11.5,-,N/A,Rain,Light Rain,90,2012-11-20 12:00:00
4:47 AM,44.6,-9999,N/A,-9999,12.0,East,12.7,18.4,N/A,,Mostly Cloudy,90,2012-11-20 12:47:00
5:00 AM,44.6,42.8,93,29.64,12.0,East,17.3,-,N/A,,Mostly Cloudy,90,2012-11-20 13:00:00
5:34 AM,44.6,-9999,N/A,-9999,12.0,East,10.4,-,N/A,Rain,Light Rain,90,2012-11-20 13:34:00
6:00 AM,44.6,42.8,93,29.64,12.0,East,11.5,-,N/A,Rain,Light Rain,80,2012-11-20 14:00:00
6:22 AM,42.8,-9999,N/A,-9999,15.0,East,10.4,-,N/A,,Mostly Cloudy,90,2012-11-20 14:22:00
7:00 AM,44.6,41.0,87,29.62,15.0,East,8.1,-,N/A,,Mostly Cloudy,90,2012-11-20 15:00:00
8:00 AM,44.6,41.0,87,29.60,15.0,ESE,10.4,-,N/A,,Mostly Cloudy,110,2012-11-20 16:00:00
9:00 AM,46.4,42.8,87,29.56,15.0,East,11.5,-,N/A,,Mostly Cloudy,90,2012-11-20 17:00:00
10:00 AM,48,43,75,29.49,15,East,16.1,,,,Partly Cloudy,90,2012-11-20 18:00:00
10:00 AM,48.2,42.8,82,29.49,15.0,East,17.3,-,N/A,,Overcast,90,2012-11-20 18:00:00
11:00 AM,50.0,42.8,76,29.49,15.0,East,16.1,-,N/A,,Overcast,80,2012-11-20 19:00:00
12:00 PM,46.4,41.0,81,29.47,15.0,East,17.3,25.3,N/A,,Overcast,90,2012-11-20 20:00:00
12:04 PM,46.4,-9999,N/A,-9999,15.0,East,20.7,-,N/A,Rain,Light Rain Showers,80,2012-11-20 20:04:00
1:00 PM,48.2,42.8,82,29.46,15.0,ESE,20.7,31.1,N/A,Rain,Light Rain Showers,110,2012-11-20 21:00:00
1:21 PM,48.2,-9999,N/A,-9999,15.0,East,23.0,29.9,N/A,,Overcast,100,2012-11-20 21:21:00
1:45 PM,50.0,-9999,N/A,-9999,15.0,ESE,23.0,32.2,N/A,Rain,Light Rain Showers,110,2012-11-20 21:45:00
2:00 PM,50.0,44.6,82,29.48,15.0,ESE,17.3,25.3,N/A,Rain,Light Rain Showers,120,2012-11-20 22:00:00
2:05 PM,50.0,-9999,N/A,-9999,15.0,ESE,21.9,29.9,N/A,,Mostly Cloudy,120,2012-11-20 22:05:00
2:33 PM,50.0,-9999,N/A,-9999,15.0,SSE,23.0,31.1,N/A,Rain,Light Rain Showers,150,2012-11-20 22:33:00
3:00 PM,50.0,44.6,82,29.52,15.0,SE,15.0,-,N/A,Rain,Light Rain Showers,140,2012-11-20 23:00:00
3:21 PM,50.0,-9999,N/A,-9999,15.0,SE,15.0,20.7,N/A,,Scattered Clouds,140,2012-11-20 23:21:00
4:00 PM,49,45,81,29.55,15,SE,12.7,,,Rain,Light Rain Showers,140,2012-11-21 00:00:00
4:00 PM,50.0,44.6,82,29.55,15.0,SE,12.7,-,N/A,,Partly Cloudy,140,2012-11-21 00:00:00
5:00 PM,48.2,41.0,76,29.58,15.0,SE,8.1,-,N/A,,Mostly Cloudy,140,2012-11-21 01:00:00
6:00 PM,48.2,39.2,71,29.59,15.0,South,6.9,-,N/A,,Overcast,180,2012-11-21 02:00:00
6:01 PM,48.2,-9999,N/A,-9999,12.0,South,5.8,-,N/A,Rain,Light Rain Showers,170,2012-11-21 02:01:00
7:00 PM,44.6,39.2,81,29.62,6.0,SW,16.1,-,N/A,Rain,Rain,220,2012-11-21 03:00:00
8:00 PM,44.6,39.2,81,29.61,15.0,South,10.4,-,N/A,Rain,Light Rain Showers,180,2012-11-21 04:00:00
8:28 PM,44.6,-9999,N/A,-9999,15.0,South,6.9,-,N/A,,Mostly Cloudy,170,2012-11-21 04:28:00
9:00 PM,46.4,39.2,76,29.64,15.0,SSW,10.4,-,N/A,,Overcast,200,2012-11-21 05:00:00
10:00 PM,44,40,79,29.64,15,East,4.6,,,,Partly Cloudy,80,2012-11-21 06:00:00
10:00 PM,44.6,39.2,81,29.64,15.0,East,4.6,-,N/A,,Overcast,80,2012-11-21 06:00:00
10:25 PM,44.6,-9999,N/A,-9999,15.0,East,5.8,-,N/A,Rain,Light Rain Showers,80,2012-11-21 06:25:00
11:00 PM,42.8,41.0,93,29.64,15.0,ESE,10.4,-,N/A,Rain,Light Rain Showers,120,2012-11-21 07:00:00